Location: Arborea
(39.7744°N, 8.5819°E)
Time: 03:28:11
(UTC+00:00)

NOSS 2-3 (E) - Pass Details

Date: 24 October 2021
Orbit: 540 x 1670 km, 63.4° (Epoch: 25 November)

Event Time Altitude Azimuth Distance (km) Brightness Sun altitude
Rises 17:20:08 0° 216° (SW) 2,685 7.5 -9.6°
Reaches altitude 10° 17:22:15 10° 218° (SW) 1,798 6.6 -10.0°
Maximum altitude 17:26:09 78° 305° (NW) 586 3.5 -10.8°
Drops below altitude 10° 17:30:35 10° 32° (NNE) 2,032 5.9 -11.6°
Enters shadow 17:32:11 - 33° (NNE) 2,698 6.5 -11.9°
